sat.trackr.live / text

‹ back to catalog

STARLINK-32635

NORAD 62155 · 2024-224S

PAYLOAD ACTIVE UNKNOWN

§ Identity

Operator
Country
US
Launch date
2024-11-30
Launch site
AFETR
Launch vehicle
Mass (kg)
RCS (m²)

Purposes: comms

External: N2YO · Heavens-Above · Gunter

§ Orbital elements

Epoch: 2026-05-25T04:48:16.886880Z

Period
94.27 min
Inclination
42.9993°
Eccentricity
0.0001328
Mean motion
15.27594342 rev/d
Perigee alt
482.1 km
Apogee alt
483.9 km
Semi-major
6,861.1 km
B*
6.9233e-4
RAAN
93.5885°
Arg perigee
260.8072°
Mean anomaly
99.2630°
Rev number
8,393

§ Raw data

STARLINK-326351 62155U 24224S   26145.20019545  .00018846  00000+0  69233-3 0  99992 62155  42.9993  93.5885 0001328 260.8072  99.2630 15.27594342 83938

JSON: /api/v1/satellites/62155 · /tle

For live sub-satellite position, see the globe view (requires WebGL).

§ Visibility from observer

Set your observer location to see the next 7 days of passes ≥ 10°. The values pass through the URL so the page stays shareable.

No JS? Fill the form by hand. The geolocation button needs JavaScript.